STARLINK-36165 (66937 NORAD) Tracking and Keplerian Element Data

This shows tracking and keplerian element data for the satellite.

Feedback or suggestion? Click here.




ElementValue
Catalog66937
NameSTARLINK-36165
Epoch Orbit319
Epoch Day354.25003472
Epoch Year2025
RAAN12.6791
Inclination53.1558
Eccentricity0.0001051
Argument of Perigee75.0423
Mean Anonmoly180.5669
Mean Motion15.77569717
Decay Rate-0.01474221
L11 66937U 25286N 25354.25003472 -.01474221 00000+0 -98287-2 0 9994
L22 66937 53.1558 12.6791 0001051 75.0423 180.5669 15.77569717 3197



Live tracking and technical data element details for STARLINK-36165 (NORAD 66937). STARLINK-36165 can be tracked NOW for your location showing map with azimuth and elevation plus other details from your city location.







IsCatalogInMostPopularTable: catalog: 66937, numindb: 9
Update: records affected: 1



GetName: 66937 STARLINK-36165

Hit Count: updated at: Sat, 07 Feb 2026 07:06:40 GMT